Hourly Data Report for January 01, 2022

TORONTO CITY CENTRE
ONTARIO
Current Station Operator: NAVCAN

43°37'39.000" N
79°23'46.000" W
76.80 m
6158359
71265
YTZ

Download Data

Hourly Data (January 2022)
Hourly Data Report for January 1, 2022
TIME
LST
Temp Definition
°C
Dew Point Definition
°C
Rel Hum Definition
%
Precip. Amount Definition
mm

Wind Dir Definition
10's deg

Wind Spd Definition
km/h
Visibility Definition
km
Stn Press Definition
kPa
Hmdx Definition


Wind Chill Definition


Weather Definition


00:00 4.1 4.0 99 0.0 5 24 4.0 99.83     Fog
01:00 4.5 4.1 97 0.0 5 26 8.1 99.74     Fog
02:00 4.6 3.9 95 0.0 5 30 11.3 99.62     LegendNANA
03:00 4.4 4.1 98 0.0 6 34 1.0 99.62     Rain, Fog
04:00 4.4 4.3 99 0.0 5 32 0.6 99.61     Rain, Fog
05:00 4.6 4.5 99 0.0 4 22 2.0 99.61     Fog
06:00 4.4 4.3 99 0.0 5 26 3.6 99.53     Fog
07:00 4.7 4.3 97 0.0 7 9 9.7 99.62     Fog
08:00 5.0 4.4 96 0.0 32 15 3.2 99.74     Fog
09:00 4.8 3.2 89 0.0 35 8 16.1 99.75     LegendNANA
10:00 5.2 3.0 86 0.0 33 9 16.1 99.87     LegendNANA
11:00 5.1 2.3 82 0.0 33 18 16.1 99.86     LegendNANA
12:00 4.8 1.5 79 0.0 34 15 16.1 99.85     LegendNANA
13:00 4.4 1.1 79 0.0 33 18 16.1 99.83     LegendNANA
14:00 4.2 0.3 76 0.0 33 21 16.1 99.83     LegendNANA
15:00 3.9 0.1 76 0.0 32 18 16.1 99.93     LegendNANA
16:00 3.3 -0.7 75 0.0 35 17 16.1 99.87     LegendNANA
17:00 3.2 -1.0 74 0.0 35 17 16.1 99.94     LegendNANA
18:00 2.6 -0.9 78 0.0 36 18 16.1 99.95     LegendNANA
19:00 2.3 -1.1 78 0.0 35 21 16.1 99.96     LegendNANA
20:00 0.9 -0.6 90 0.2 35 15 3.6 99.99     Snow
21:00 0.4 -1.5 87 0.2 35 26 9.7 99.91     Snow
22:00 -0.4 -2.2 88 0.2 35 26 3.2 99.92   -7 Snow
23:00 -0.9 -2.8 87 0.5 36 24 2.8 99.96   -7 Snow

Notes on Data Quality.

Legend

  • E = Estimated
  • M = Missing
  • NA = Not Available*
  • [empty] = Indicates an unobserved value
Date modified: